Regional Weather Roundup
Issued by NWS

Home | Current Version | Previous Version | Text Only | Print | Product List | Glossary On
Versions: 1 2 3 4 5 6 7 8 9 10 11 12 13 14 15 16 17 18 19 20 21 22 23 24 25 26 27 28 29 30 31 32 33 34 35 36 37 38 39 40 41 42 43 44 45 46 47 48 49 50
000
ASUS43 KDMX 250501
RWRIA

WEATHER ROUNDUP FOR IOWA
NATIONAL WEATHER SERVICE DES MOINES IA
1100 PM CST FRI NOV 24 2017

NOTE: "FAIR" INDICATES FEW OR NO CLOUDS BELOW 12,000 FEET WITH NO
SIGNIFICANT WEATHER AND/OR OBSTRUCTIONS TO VISIBILITY.

* - THESE STATIONS ARE NOT NWS STATIONS...THUS NOT UNDER NWS
QUALITY CONTROL.  THEY ALSO DO NOT REPORT WEATHER SUCH
AS PRECIPITATION OR FOG.

IAZ001>003-012>014-020>022-031>034-043>046-250600-
   NORTHWEST IOWA

CITY           SKY/WX    TMP DP  RH WIND       PRES   REMARKS
CARROLL *      CLEAR     41  34  75 W8        29.90R
CHEROKEE *     CLEAR     37  33  82 NW5       29.90R WCI  34
DENISON *      CLEAR     43  34  70 NW9       29.93R
LE MARS *      CLEAR     39  32  75 NW5       29.92R
ORANGE CITY *  CLOUDY    37  34  87 NW5       29.90S WCI  34
SHELDON *      PTCLDY    37  32  81 NW8       29.89R WCI  31
SIOUX CITY     CLEAR     37  31  78 CALM      29.93R
SPENCER        CLEAR     38  32  79 NW12      29.89R WCI  30
STORM LAKE *   CLEAR     41  34  75 NW14      29.90R
$$

IAZ055>058-069>071-079>083-090>094-250600-
   SOUTHWEST IOWA

CITY           SKY/WX    TMP DP  RH WIND       PRES   REMARKS
ATLANTIC *     CLEAR     43  36  75 NW9       29.92R
AUDUBON *      CLEAR     43  36  75 N3        29.92R
CLARINDA *     CLEAR     48  37  66 NW7         N/A
COUNCIL BLFS * CLEAR     45  37  76 NW6       29.93R
CRESTON *      CLEAR     39  36  87 W7        29.92R WCI  34
HARLAN  *      CLEAR     43  36  75 NW8       29.96R
LAMONI         CLEAR     43  37  79 NW10      29.89R
RED OAK *      CLEAR     45  37  76 NW8       29.94R
SHENANDOAH *   CLEAR     43  36  75 CALM      29.96R
$$

IAZ047>049-059>061-072>074-084-250600-
   CENTRAL IOWA

CITY           SKY/WX    TMP DP  RH WIND       PRES   REMARKS
AMES           CLEAR     46  36  68 NW18G26   29.85R
ANKENY *       CLEAR     46  36  66 NW14G20   29.87R
BOONE *        CLEAR     46  34  61 NW16G26   29.86R
CHARITON *     CLEAR     46  37  71 NW9G17    29.86R
DES MOINES     CLEAR     47  36  65 NW13      29.87R
GRINNELL*      CLEAR     43  37  78 NW13      29.82R
KNOXVILLE *    CLEAR     46  36  66 NW12      29.83R
MARSHALLTOWN   CLEAR     40  35  83 NW12      29.83R WCI  33
NEWTON *       CLEAR     46  37  71 NW16G23   29.84R
PELLA *        CLEAR     46  37  71 NW10      29.85R
PERRY *          N/A     45  32  62 NW13      29.89R
$$

IAZ004>006-015-016-023>025-035-036-250600-
   NORTH CENTRAL IOWA

CITY           SKY/WX    TMP DP  RH WIND       PRES   REMARKS
ALGONA *       CLEAR     39  34  81 NW9       29.86R WCI  33
CLARION *      CLEAR     39  36  87 NW8       29.85R WCI  34
ESTHERVILLE    CLEAR     36  32  85 W12       29.86R WCI  28
FORT DODGE *   CLEAR     41  33  73 VRB5      29.87R
MASON CITY     CLEAR     40  33  76 NW15      29.83R WCI  32
FOREST CITY *    N/A     41  34  75 NW9       29.82R
WEBSTER CITY * CLEAR     39  32  75 NW13      29.84R WCI  32
IOWA FALLS *     N/A     43  36  76 NW13      29.84R
$$

IAZ007>011-017>019-026>030-037>042-050>054-066-250600-
   NORTHEAST IOWA

CITY           SKY/WX    TMP DP  RH WIND       PRES   REMARKS
CEDAR RAPIDS   CLEAR     44  37  76 NW13      29.77R
CHARLES CITY * CLEAR     41  39  93 NW15      29.79R
CLINTON *      CLEAR     48  43  82 NW17      29.69R
DECORAH *      CLEAR     43  36  75 NW10G20   29.74R
DUBUQUE        CLEAR     47  40  76 NW21G29   29.72R
MONTICELLO *   CLEAR     45  39  81 NW16G25   29.74R
OELWEIN *      CLEAR     43  39  87 NW17G24   29.77R
WATERLOO       CLEAR     42  35  76 W8        29.80R
$$

IAZ064-065-067-068-078-250600-
   EAST CENTRAL IOWA

CITY           SKY/WX    TMP DP  RH WIND       PRES   REMARKS
DAVENPORT      CLEAR     48  41  76 NW20      29.73R
IOWA CITY      CLEAR     50  38  63 NW18      29.78R
MT. PLEASANT * CLEAR     49  38  66 NW12G20   29.78R
MUSCATINE *    CLEAR     50  39  66 NW14G20   29.76R
QUAD CITIES    CLEAR     52  41  66 NW23G30   29.71R
$$

IAZ062-063-075>077-085>089-095>099-250600-
   SOUTHEAST IOWA

CITY           SKY/WX    TMP DP  RH WIND       PRES   REMARKS
BURLINGTON     CLEAR     52  42  69 NW15G22   29.75R
FAIRFIELD *    CLEAR     46  37  71 NW18      29.80R
FORT MADISON * CLEAR     52  43  71 NW16G24   29.77R
KEOKUK *       CLEAR     54  41  62 NW20G26   29.76R
OSKALOOSA *      N/A     46  37  71 N18       29.82R
OTTUMWA        CLEAR     47  37  68 NW18      29.82R
WASHINGTON *   CLEAR     48  39  71 NW21G28   29.80R
$$

ABBREVIATIONS USED IN REMARKS
   TC - TEMPERATURES IN CELSIUS
  WCI - WIND CHILL INDEX
   HX - HEAT INDEX
  VSB - VISIBILITY
$$





USA.gov is the U.S. government's official web portal to all federal, state and local government web resources and services.